[[{"header":{"parameterUnit":"m.s-1","parameterCategory":1,"la1":30.2991,"la2":30.254,"lo1":-89.0895,"lo2":-89.0444,"dy":0.0017,"dx":0.0017,"nx":28,"ny":28,"refTime":"2023-09-03T21:00:00:Z","depth":0,"parameterNumber":2,"parameterNumberName":"U-component_of_WINDS"},"data":[0,0,0,0,0,0,0,0,0,0,0,0,0,0,0,0,0,0,0,0,0,0,0,0,0,0,0,0,0,0,0,0,0,0,0,0,0,0,0,0,0,0,0,0,0,0,0,0,0,0,0,0,0,0,0,0,0,0,-4.0238,-4.0239,0,-4.0362,-4.0363,-4.0365,-4.0354,-4.0353,-4.0351,-4.0349,-4.0475,-4.048,-4.0485,0,0,0,0,0,0,0,0,0,0,0,0,0,-3.9989,-3.9993,-4.0237,-4.0239,-4.0241,-4.0362,-4.0364,-4.0365,-4.0355,-4.0353,-4.035,-4.0348,-4.0473,-4.0479,-4.0485,0,0,0,0,0,0,0,0,0,0,0,0,0,-4.0103,-3.9995,-4.0237,-4.025,-4.0252,-4.0361,-4.0364,-4.0366,-4.0355,-4.0352,-4.035,-4.0347,-4.0471,-4.0478,-4.0486,-4.059,0,0,-4.0509,-4.0513,0,0,0,0,0,0,0,0,-4.0097,-4.0112,-4.0247,-4.0249,-4.0252,-4.034,-4.0322,-4.0441,-4.0356,-4.0316,-4.0349,-4.0346,-4.0432,-4.0443,-4.0472,-4.0596,-4.0601,-4.051,-4.0515,-4.0518,-4.052,0,0,0,0,0,0,0,-4.0089,-4.0107,-4.0287,-4.0249,-4.0252,-4.0249,-4.0262,-4.0344,-4.0388,-4.0319,-4.0319,-4.0334,-4.0433,-4.0465,-4.0475,-4.0603,-4.051,-4.0517,-4.0521,-4.0524,-4.0815,-4.0818,0,0,0,0,0,0,-4.0078,-4.01,-4.0283,-4.029,-4.0166,-4.0256,-4.027,-4.0315,-4.0387,-4.0396,-4.0336,-4.0333,-4.0453,-4.0466,-4.0479,-4.0603,-4.0518,-4.0525,-4.0529,-4.0812,-4.0816,-4.0819,0,0,0,0,0,0,-4.0073,-4.0095,-4.0278,-4.0195,-4.0218,-4.0263,-4.0313,-4.0319,-4.035,-4.04,-4.0408,-4.0361,-4.0451,-4.0469,-4.0562,-4.0607,-4.0528,-4.0535,-4.0808,-4.0813,-4.0817,-4.0853,0,0,0,0,0,0,-4.0066,-4.0093,-4.0133,-4.0196,-4.0223,-4.0359,-4.0316,-4.0323,-4.0364,-4.0361,-4.0425,-4.0433,-4.045,-4.055,-4.0569,-4.0616,-4.0541,-4.0804,-4.081,-4.0816,-4.0848,-4.0858,-4.0867,0,0,0,0,0,-4.0057,-4.0138,-4.0135,-4.0157,-4.0274,-4.0362,-4.0377,-4.0395,-4.0368,-4.0408,-4.044,-4.0431,-4.06,-4.056,-4.0581,-4.0631,-4.0801,-4.0809,-4.0815,-4.0843,-4.0856,-4.0867,0,0,0,0,0,0,-4.0079,-4.0147,-4.0144,-4.0249,-4.0299,-4.036,-4.0411,-4.0409,-4.0468,-4.0463,-4.0483,-4.0498,-4.0591,-4.0621,-4.0575,-4.0734,-4.0697,-4.0708,-4.0711,-4.0723,-4.0733,-4.0722,-4.0548,0,0,0,0,0,-4.0096,-4.0162,-4.0217,-4.0304,-4.033,-4.0366,-4.0405,-4.0415,-4.0468,-4.0489,-4.0528,-4.058,-4.0644,-4.0686,-4.0748,-4.0853,-4.0865,-4.0898,-4.0908,-4.0915,-4.0924,-4.0979,-4.0993,-4.0842,-4.0842,-4.0842,0,0,-4.0132,-4.0177,-4.0217,-4.031,-4.035,-4.0416,-4.0384,-4.0456,-4.0505,-4.05,-4.059,-4.062,-4.0679,-4.0778,-4.0823,-4.0805,-4.0969,-4.0924,-4.093,-4.0935,-4.0988,-4.1002,-4.1014,-4.0847,-4.0846,-4.0845,0,0,-4.023,-4.0272,-4.0347,-4.0389,-4.045,-4.0474,-4.0492,-4.0553,-4.0573,-4.0664,-4.066,-4.0719,-4.0831,-4.0871,-4.0907,-4.102,-4.1013,-4.104,-4.1089,-4.1143,-4.1155,-4.1165,-4.1202,-4.1216,-4.105,-4.105,-4.105,0,-4.0266,-4.0366,-4.0386,-4.0458,-4.0498,-4.0498,-4.0573,-4.0612,-4.0691,-4.0718,-4.0698,-4.0836,-4.0876,-4.0983,-4.101,-4.1041,-4.106,-4.1031,-4.1152,-4.1162,-4.1172,-4.1208,-4.1222,-4.1052,-4.1052,-4.1052,-4.1052,0,-4.0406,-4.0475,-4.0529,-4.0604,-4.0651,-4.0725,-4.0755,-4.0799,-4.0806,-4.0831,-4.0922,-4.097,-4.1041,-4.1068,-4.1075,-4.1176,-4.1162,-4.1147,-4.1109,-4.1189,-4.1223,-4.1237,-4.1056,-4.1055,-4.1054,-4.1054,0,0,-4.0519,-4.0605,-4.0624,-4.0657,-4.0726,-4.0779,-4.0853,-4.0922,-4.0958,-4.1013,-4.1073,-4.1168,-4.1153,-4.1193,-4.1206,-4.1253,-4.1336,-4.1231,-4.1233,-4.1246,-4.1446,-4.1455,-4.147,-4.1333,-4.1336,-4.1338,-4.144,0,-4.0622,-4.0751,-4.0771,-4.0884,-4.0947,-4.0948,-4.1011,-4.1059,-4.1085,-4.1142,-4.1171,-4.1235,-4.1213,-4.1237,-4.1285,-4.1316,-4.1376,-4.1309,-4.1387,-4.1389,-4.1368,-4.1489,-4.1498,-4.1592,-4.1454,-4.1456,-4.1458,0,-4.0758,-4.0815,-4.0935,-4.0992,-4.1019,-4.1076,-4.114,-4.1195,-4.1249,-4.1265,-4.131,-4.1316,-4.139,-4.1352,-4.1453,-4.1408,-4.1441,-4.1462,-4.1466,-4.1471,-4.1426,-4.1493,-4.1622,-4.1635,-4.1479,-4.1478,-4.1476,0,-4.0824,-4.0932,-4.1017,-4.1046,-4.1116,-4.1155,-4.1186,-4.1238,-4.1278,-4.1334,-4.136,-4.1425,-4.1459,-4.1509,-4.1532,-4.1502,-4.1631,-4.1595,-4.1644,-4.1643,-4.1668,-4.1665,-4.18,-4.1696,-4.1695,-4.1695,-4.1695,0,-4.0934,-4.1006,-4.1047,-4.1099,-4.1179,-4.1202,-4.128,-4.131,-4.1356,-4.1412,-4.1418,-4.1471,-4.15,-4.1557,-4.1576,-4.1655,-4.1672,-4.1685,-4.1688,-4.1682,-4.168,-4.1702,-4.1695,-4.1699,-4.1698,-4.1697,-4.1697,0,-4.1021,-4.1052,-4.1143,-4.1202,-4.1219,-4.1275,-4.1325,-4.1374,-4.1401,-4.1472,-4.149,-4.153,-4.1598,-4.1626,-4.1709,-4.1722,-4.1812,-4.1812,-4.1793,-4.1793,-4.1839,-4.1833,-4.199,-4.2011,-4.1895,-4.1896,-4.1897,0,-4.1088,-4.1143,-4.1207,-4.1246,-4.1278,-4.134,-4.138,-4.1405,-4.1447,-4.1512,-4.1553,-4.162,-4.1675,-4.1782,-4.1818,-4.1882,-4.1881,-4.1932,-4.1891,-4.1882,-4.1878,-4.1873,-4.1877,-4.1938,-4.194,-4.1941,-4.1941,0,-4.1201,-4.1213,-4.1272,-4.1335,-4.1383,-4.1434,-4.1484,-4.1515,-4.1547,-4.1594,-4.1662,-4.1705,-4.1789,-4.1855,-4.192,-4.1951,-4.1951,-4.1955,-4.1968,-4.1961,-4.1946,-4.1952,-4.181,-4.195,-4.1949,-4.1949,-4.1948,-4.1948,-4.1278,-4.1326,-4.1378,-4.1442,-4.1482,-4.1529,-4.1577,-4.1609,-4.1667,-4.1737,-4.1748,-4.1821,-4.1872,-4.196,-4.1994,-4.205,-4.2037,-4.2058,-4.2063,-4.2067,-4.2068,-4.194,-4.2062,-4.2062,-4.2062,-4.2062,-4.2062,0,-4.1389,-4.1422,-4.1481,-4.155,-4.16,-4.1597,-4.1652,-4.1694,-4.1757,-4.1806,-4.1859,-4.1937,-4.2001,-4.2042,-4.2107,-4.2144,-4.2145,-4.2159,-4.2155,-4.2162,-4.2077,-4.2057,-4.2157,-4.2157,-4.2157,-4.2157,-4.2157,-4.2157,-4.1452,-4.1532,-4.1551,-4.165,-4.1683,-4.1754,-4.1785,-4.1827,-4.1866,-4.1952,-4.2005,-4.2032,-4.2077,-4.2144,-4.2202,-4.2213,-4.2234,-4.2249,-4.2258,-4.2178,-4.2168,-4.2158,-4.2139,-4.2254,-4.2255,-4.2337,-4.2338,-4.2339]},{"header":{"parameterUnit":"m.s-1","parameterCategory":1,"la1":30.2991,"la2":30.254,"lo1":-89.0895,"lo2":-89.0444,"dy":0.0017,"dx":0.0017,"nx":28,"ny":28,"refTime":"2023-09-03T21:00:00:Z","depth":0,"parameterNumber":3,"parameterNumberName":"V-component_of_WINDS"},"data":[0,0,0,0,0,0,0,0,0,0,0,0,0,0,0,0,0,0,0,0,0,0,0,0,0,0,0,0,0,0,0,0,0,0,0,0,0,0,0,0,0,0,0,0,0,0,0,0,0,0,0,0,0,0,0,0,0,0,3.1996,3.1996,0,3.2035,3.2035,3.2035,3.1987,3.1985,3.1983,3.1982,3.2018,3.2021,3.2023,0,0,0,0,0,0,0,0,0,0,0,0,0,3.1876,3.1878,3.1996,3.1996,3.1997,3.2035,3.2035,3.2036,3.1987,3.1985,3.1983,3.1981,3.2017,3.202,3.2024,0,0,0,0,0,0,0,0,0,0,0,0,0,3.1923,3.1879,3.1995,3.1977,3.1976,3.2034,3.2035,3.2036,3.1988,3.1985,3.1982,3.198,3.2016,3.202,3.2024,3.2101,0,0,3.2036,3.2038,0,0,0,0,0,0,0,0,3.192,3.1927,3.1979,3.1979,3.1977,3.2003,3.2006,3.2058,3.1988,3.1983,3.1982,3.1979,3.2015,3.2019,3.2032,3.2103,3.2105,3.2036,3.2039,3.204,3.2041,0,0,0,0,0,0,0,3.1917,3.1925,3.2011,3.198,3.1979,3.1966,3.197,3.2016,3.2013,3.1983,3.198,3.1985,3.2014,3.2028,3.2032,3.2105,3.2036,3.204,3.2042,3.2044,3.224,3.2243,0,0,0,0,0,0,3.1916,3.1923,3.201,3.2012,3.1942,3.197,3.1974,3.1998,3.2013,3.2013,3.1988,3.1983,3.2023,3.2028,3.2034,3.2123,3.204,3.2044,3.2046,3.2237,3.2241,3.2244,0,0,0,0,0,0,3.1914,3.1925,3.2008,3.1967,3.1976,3.1975,3.2002,3.2,3.2014,3.2016,3.2015,3.2003,3.2021,3.2028,3.2085,3.2124,3.2046,3.2049,3.2234,3.2238,3.2242,3.2305,0,0,0,0,0,0,3.1911,3.1924,3.1954,3.1968,3.1979,3.206,3.2004,3.2002,3.2021,3.2016,3.203,3.203,3.2019,3.2079,3.2089,3.2128,3.2052,3.223,3.2236,3.2241,3.2299,3.2311,3.2321,0,0,0,0,0,3.1907,3.197,3.1956,3.1967,3.2016,3.2062,3.2068,3.2056,3.2025,3.2054,3.2056,3.2029,3.2119,3.2085,3.2096,3.2137,3.2228,3.2234,3.2241,3.2295,3.2309,3.2321,0,0,0,0,0,0,3.1959,3.1971,3.1956,3.2025,3.2043,3.2054,3.209,3.2071,3.2097,3.2091,3.2074,3.2077,3.2138,3.2143,3.2106,3.2212,3.2168,3.2177,3.2206,3.2219,3.223,3.2225,3.2056,0,0,0,0,0,3.1979,3.2017,3.2025,3.2085,3.2095,3.2092,3.2111,3.21,3.2117,3.2124,3.213,3.2147,3.2178,3.2199,3.2229,3.2301,3.2302,3.2335,3.2345,3.2354,3.2361,3.2398,3.2412,3.2265,3.2265,3.2265,0,0,3.202,3.2031,3.2056,3.2096,3.2108,3.2146,3.2098,3.214,3.2167,3.213,3.2184,3.2189,3.2206,3.2271,3.2299,3.2277,3.2402,3.2362,3.2369,3.2371,3.2406,3.242,3.2432,3.2269,3.2269,3.2268,0,0,3.2114,3.2127,3.2178,3.2192,3.2212,3.221,3.2222,3.2236,3.2238,3.2292,3.2265,3.2297,3.2352,3.2366,3.238,3.2479,3.2455,3.249,3.2544,3.2581,3.2592,3.2602,3.2635,3.2648,3.2497,3.2497,3.2497,0,3.2161,3.2218,3.2207,3.225,3.2268,3.2239,3.2289,3.2303,3.2331,3.2344,3.2319,3.2388,3.2398,3.2464,3.2489,3.2502,3.2514,3.2486,3.2592,3.2602,3.2611,3.2642,3.2655,3.2501,3.2501,3.25,3.25,0,3.2275,3.2315,3.2354,3.2382,3.2405,3.2452,3.2447,3.2471,3.2459,3.2458,3.2513,3.2524,3.2555,3.257,3.2559,3.2635,3.262,3.2595,3.2549,3.2629,3.2658,3.267,3.2506,3.2505,3.2504,3.2503,0,0,3.24,3.2423,3.2437,3.245,3.247,3.25,3.2546,3.2577,3.2597,3.2618,3.2654,3.2703,3.2679,3.2695,3.2684,3.2717,3.2792,3.2686,3.2686,3.2703,3.2875,3.2892,3.2906,3.2778,3.2781,3.2782,3.2872,0,3.2492,3.2571,3.2563,3.2638,3.2673,3.2646,3.2686,3.2702,3.2704,3.2733,3.2734,3.2768,3.2735,3.2744,3.2775,3.2777,3.2826,3.277,3.2809,3.2811,3.2803,3.2922,3.2941,3.3025,3.2884,3.2886,3.2887,0,3.2609,3.2635,3.2714,3.2728,3.2743,3.2779,3.2806,3.2836,3.2853,3.2852,3.2871,3.2855,3.2899,3.2856,3.2916,3.2878,3.2894,3.2897,3.29,3.2901,3.2852,3.2923,3.3052,3.3064,3.2906,3.2904,3.2903,0,3.2689,3.2744,3.2798,3.281,3.2829,3.2854,3.2863,3.2879,3.2898,3.2922,3.2934,3.2963,3.2978,3.3,3.2992,3.2962,3.3053,3.3009,3.3051,3.3051,3.3069,3.3067,3.3199,3.3084,3.3084,3.3084,3.3084,0,3.279,3.2839,3.2834,3.2867,3.2921,3.291,3.2963,3.2969,3.2983,3.3015,3.2994,3.3025,3.3014,3.3044,3.3038,3.3088,3.3095,3.3094,3.3091,3.3094,3.3094,3.3102,3.3095,3.3087,3.3086,3.3086,3.3085,0,3.2888,3.2887,3.2943,3.2957,3.2962,3.3001,3.3012,3.3042,3.3043,3.3084,3.3093,3.3094,3.3128,3.3123,3.3161,3.3157,3.3218,3.321,3.3212,3.3209,3.325,3.3245,3.3389,3.3407,3.3283,3.3284,3.3286,0,3.2951,3.2988,3.3006,3.3027,3.3038,3.3072,3.3092,3.3083,3.3104,3.3128,3.3155,3.3188,3.3213,3.3268,3.3271,3.33,3.329,3.3339,3.3294,3.3296,3.3288,3.3285,3.3287,3.3347,3.3348,3.3349,3.335,0,3.3063,3.3061,3.309,3.312,3.3144,3.3167,3.3188,3.3206,3.3199,3.3224,3.3259,3.3279,3.3318,3.335,3.3377,3.3385,3.3366,3.3365,3.3375,3.3377,3.3376,3.3375,3.3233,3.3361,3.336,3.3359,3.3358,3.3358,3.3143,3.3174,3.3192,3.3226,3.3241,3.326,3.3289,3.3294,3.3323,3.3355,3.3348,3.3388,3.3404,3.3439,3.345,3.3479,3.3461,3.3478,3.3481,3.3485,3.3488,3.3374,3.3485,3.3484,3.3484,3.3484,3.3484,0,3.3252,3.3262,3.3293,3.3323,3.3349,3.3332,3.3353,3.3376,3.3411,3.3429,3.3454,3.3494,3.3525,3.3532,3.3561,3.3583,3.3575,3.3591,3.3588,3.359,3.3504,3.349,3.3597,3.3597,3.3597,3.3597,3.3597,3.3597,3.3311,3.3362,3.3362,3.342,3.343,3.3469,3.3483,3.35,3.3514,3.356,3.3586,3.3591,3.3603,3.3633,3.3661,3.3661,3.3672,3.3691,3.3688,3.3607,3.3596,3.3585,3.3572,3.3694,3.3694,3.3771,3.3771,3.3772]}]]